Location: Bouillancy
(49.1149°N, 2.9308°E)
Time: 08:24:34
(UTC+00:00)

Cosmos 1733 - Pass Details

Date: 30 September 2020
Orbit: 504 x 522 km, 82.5° (Epoch: 29 October)

Event Time Altitude Azimuth Distance (km) Brightness Sun altitude
Rises 19:11:38 0° 201° (SSW) 2,626 6.8 -17.6°
Reaches altitude 10° 19:13:48 10° 206° (SSW) 1,740 6.0 -17.9°
Maximum altitude 19:17:31 51° 283° (WNW) 656 4.1 -18.5°
Drops below altitude 10° 19:21:16 10° 0° (N) 1,744 6.1 -19.1°
Sets 19:23:26 0° 6° (N) 2,633 7.0 -19.4°
